CW0212 Weather Reports


Display with metric or nautical units.
time (UTC)temp
F
wind
direction
speed
MPH
gust
MPH
rain 1hr
in
rain 24hr
in
rain mn
in
humidity
%
barometer
mb
20180920214722 90 288 0.0 0.0 0.00 0.00 0.00 54 1018.5
20180920214230 90 288 0.0 0.0 0.00 0.00 0.00 58 1018.6
20180920213711 90 288 0.0 0.0 0.00 0.00 0.00 55 1018.6
20180920213212 90 288 0.0 0.0 0.00 0.00 0.00 54 1018.6
20180920212714 90 288 0.0 0.0 0.00 0.00 0.00 52 1018.6
20180920212214 90 288 0.0 0.0 0.00 0.00 0.00 54 1018.6
20180920211716 90 288 0.0 0.0 0.00 0.00 0.00 53 1018.6
20180920211215 90 288 0.0 0.0 0.00 0.00 0.00 52 1018.6
20180920210716 91 288 0.0 0.0 0.00 0.00 0.00 50 1018.6
20180920210225 91 288 0.0 0.0 0.00 0.00 0.00 50 1018.6
20180920205711 91 288 0.0 0.0 0.00 0.00 0.00 49 1018.6
20180920205216 92 288 0.0 0.0 0.00 0.00 0.00 48 1018.6
20180920204716 91 288 0.0 0.0 0.00 0.00 0.00 52 1018.6
20180920204221 91 288 0.0 0.0 0.00 0.00 0.00 53 1018.8
20180920203722 92 288 0.0 1.0 0.00 0.00 0.00 51 1018.8
20180920203222 92 288 0.0 1.0 0.00 0.00 0.00 48 1018.8
20180920202723 92 288 0.0 0.0 0.00 0.00 0.00 51 1018.8
20180920202225 92 288 0.0 0.0 0.00 0.00 0.00 53 1018.8
20180920201725 91 287 0.0 0.0 0.00 0.00 0.00 51 1018.8
20180920201207 92 287 0.0 0.0 0.00 0.00 0.00 48 1019.0
20180920200730 92 287 0.0 0.0 0.00 0.00 0.00 50 1019.0
20180920200240 92 286 0.0 2.0 0.00 0.00 0.00 57 1019.0
20180920195723 92 290 0.0 2.0 0.00 0.00 0.00 50 1019.1
20180920195227 92 248 0.0 0.0 0.00 0.00 0.00 53 1019.1
20180920194726 90 241 0.0 0.0 0.00 0.00 0.00 55 1019.1
20180920194215 88 241 0.0 0.0 0.00 0.00 0.00 57 1019.1
20180920193716 88 241 0.0 0.0 0.00 0.00 0.00 57 1019.1
20180920193217 90 241 0.0 2.0 0.00 0.00 0.00 52 1019.1
20180920192720 92 302 0.0 1.0 0.00 0.00 0.00 49 1019.4
20180920192222 92 302 0.0 3.0 0.00 0.00 0.00 47 1019.4
20180920191727 91 302 0.0 3.0 0.00 0.00 0.00 52 1019.4
20180920191228 91 305 0.0 3.0 0.00 0.00 0.00 54 1019.6
20180920190712 89 313 0.0 0.0 0.00 0.00 0.00 53 1019.6
20180920190242 88 313 0.0 0.0 0.00 0.00 0.00 53 1019.6
20180920185726 87 313 0.0 0.0 0.00 0.00 0.00 56 1019.7
20180920185208 88 313 0.0 0.0 0.00 0.00 0.00 56 1019.7
20180920184711 88 313 0.0 4.0 0.00 0.00 0.00 54 1019.7
20180920184218 91 313 0.0 4.0 0.00 0.00 0.00 52 1019.9
20180920183718 92 306 0.0 5.0 0.00 0.00 0.00 51 1019.9
20180920183219 91 340 0.0 5.0 0.00 0.00 0.00 53 1019.9
20180920182719 90 254 0.0 4.0 0.00 0.00 0.00 50 1020.2
20180920182222 90 273 0.0 2.0 0.00 0.00 0.00 51 1020.2
20180920181727 91 302 0.0 3.0 0.00 0.00 0.00 51 1020.2
20180920181227 92 304 0.0 3.0 0.00 0.00 0.00 54 1020.2
20180920180711 91 222 0.0 1.0 0.00 0.00 0.00 56 1020.2
20180920180242 91 181 0.0 3.0 0.00 0.00 0.00 54 1020.2
20180920175725 90 279 1.0 3.0 0.00 0.00 0.00 54 1020.5
20180920175229 90 301 0.0 1.0 0.00 0.00 0.00 52 1020.5
20180920174730 90 304 0.0 1.0 0.00 0.00 0.00 54 1020.5
20180920174215 89 232 0.0 4.0 0.00 0.00 0.00 51 1020.7
20180920173716 90 288 0.0 4.0 0.00 0.00 0.00 54 1020.7
20180920173215 90 290 1.0 2.0 0.00 0.00 0.00 56 1020.7
20180920172716 89 305 0.0 2.0 0.00 0.00 0.00 55 1021.0
20180920172216 89 319 0.0 2.0 0.00 0.00 0.00 56 1021.0
20180920171718 88 247 0.0 2.0 0.00 0.00 0.00 61 1021.0
20180920171218 88 271 0.0 1.0 0.00 0.00 0.00 59 1021.1
20180920170719 87 279 0.0 3.0 0.00 0.00 0.00 60 1021.1
20180920170229 86 279 0.0 3.0 0.00 0.00 0.00 62 1021.1
20180920165715 86 286 0.0 2.0 0.00 0.00 0.00 64 1021.3
20180920165215 85 252 0.0 2.0 0.00 0.00 0.00 62 1021.3
20180920164719 85 109 0.0 0.0 0.00 0.00 0.00 66 1021.3
20180920164218 85 109 0.0 0.0 0.00 0.00 0.00 64 1021.4
20180920163726 84 215 0.0 2.0 0.00 0.00 0.00 68 1021.4
20180920163208 84 219 0.0 2.0 0.00 0.00 0.00 66 1021.4
20180920162712 83 292 0.0 0.0 0.00 0.00 0.00 68 1021.7
20180920162213 83 292 0.0 2.0 0.00 0.00 0.00 68 1021.7
20180920161712 82 292 0.0 2.0 0.00 0.00 0.00 69 1021.7
20180920161213 81 292 0.0 3.0 0.00 0.00 0.00 72 1021.8
20180920160713 81 294 0.0 3.0 0.00 0.00 0.00 74 1021.8
20180920160244 80 242 0.0 0.0 0.00 0.00 0.00 73 1021.8
20180920155727 79 242 0.0 0.0 0.00 0.00 0.00 77 1021.9
20180920155227 79 242 0.0 0.0 0.00 0.00 0.00 76 1021.9
20180920154711 79 242 0.0 0.0 0.00 0.00 0.00 80 1021.9
20180920154211 78 242 0.0 0.0 0.00 0.00 0.00 80 1021.9
20180920153717 78 242 0.0 0.0 0.00 0.00 0.00 79 1021.9
20180920153217 77 340 0.0 0.0 0.00 0.00 0.00 83 1021.9
20180920152718 76 190 0.0 0.0 0.00 0.00 0.00 84 1022.0
20180920152218 76 180 0.0 0.0 0.00 0.00 0.00 85 1022.0
20180920151721 75 180 0.0 0.0 0.00 0.00 0.00 87 1022.0
20180920151225 75 178 0.0 0.0 0.00 0.00 0.00 90 1021.9
20180920150728 74 178 0.0 0.0 0.00 0.00 0.00 90 1021.9
20180920150239 74 178 0.0 0.0 0.00 0.00 0.00 91 1021.9
20180920145722 74 178 0.0 0.0 0.00 0.00 0.00 93 1021.8
20180920145225 73 178 0.0 0.0 0.00 0.00 0.00 94 1021.8
20180920144730 73 178 0.0 0.0 0.00 0.00 0.00 95 1021.8
20180920144229 72 178 0.0 0.0 0.00 0.00 0.00 96 1021.8
20180920143712 72 178 0.0 0.0 0.00 0.00 0.00 96 1021.8
20180920143216 72 178 0.0 0.0 0.00 0.00 0.00 96 1021.8
20180920142717 72 178 0.0 0.0 0.00 0.00 0.00 96 1021.8
20180920142217 72 178 0.0 0.0 0.00 0.00 0.00 96 1021.8
20180920141717 71 178 0.0 0.0 0.00 0.00 0.00 96 1021.8
20180920141218 71 178 0.0 0.0 0.00 0.00 0.00 97 1021.7
20180920140719 71 178 0.0 0.0 0.00 0.00 0.00 96 1021.7
20180920140229 71 178 0.0 0.0 0.00 0.00 0.00 96 1021.7
20180920135716 70 178 0.0 0.0 0.00 0.00 0.00 96 1021.4
20180920135216 70 178 0.0 0.0 0.00 0.00 0.00 96 1021.4
20180920134718 70 178 0.0 0.0 0.00 0.00 0.00 96 1021.4
20180920134219 70 178 0.0 0.0 0.00 0.00 0.00 96 1021.3
20180920133719 70 178 0.0 0.0 0.00 0.00 0.00 96 1021.3
20180920133223 69 178 0.0 0.0 0.00 0.00 0.00 96 1021.3
20180920132723 69 178 0.0 0.0 0.00 0.00 0.00 96 1021.2
20180920132225 69 178 0.0 0.0 0.00 0.00 0.00 96 1021.2
20180920131724 69 178 0.0 0.0 0.00 0.00 0.00 96 1021.2
20180920131208 69 178 0.0 0.0 0.00 0.00 0.00 96 1021.2
20180920130711 69 178 0.0 0.0 0.00 0.00 0.00 96 1021.2
20180920130224 68 178 0.0 0.0 0.00 0.00 0.00 96 1021.2
20180920125714 68 178 0.0 0.0 0.00 0.00 0.00 96 1021.0
20180920125217 68 178 0.0 0.0 0.00 0.00 0.00 95 1021.0
20180920124720 68 178 0.0 0.0 0.00 0.00 0.00 95 1021.0
20180920124224 68 178 0.0 0.0 0.00 0.00 0.00 95 1020.8
20180920123724 68 178 0.0 0.0 0.00 0.00 0.00 95 1020.8
20180920123227 68 178 0.0 0.0 0.00 0.00 0.00 95 1020.8
20180920122710 68 178 0.0 0.0 0.00 0.00 0.00 95 1020.7
20180920122213 68 178 0.0 0.0 0.00 0.00 0.00 95 1020.7
20180920121718 68 178 0.0 0.0 0.00 0.00 0.00 95 1020.7
20180920121218 68 178 0.0 0.0 0.00 0.00 0.00 95 1020.4
20180920120719 69 178 0.0 0.0 0.00 0.00 0.00 95 1020.4
20180920120231 69 178 0.0 0.0 0.00 0.00 0.00 95 1020.4
20180920115713 69 178 0.0 0.0 0.00 0.00 0.00 95 1020.2
20180920115217 69 178 0.0 0.0 0.00 0.00 0.00 95 1020.2
20180920114716 69 178 0.0 0.0 0.00 0.00 0.00 95 1020.2
20180920114219 69 178 0.0 0.0 0.00 0.00 0.00 95 1020.0
20180920113722 69 178 0.0 0.0 0.00 0.00 0.00 95 1020.0
20180920113230 69 178 0.0 0.0 0.00 0.00 0.00 95 1020.0
20180920112709 69 178 0.0 0.0 0.00 0.00 0.00 95 1019.6
20180920112213 69 178 0.0 0.0 0.00 0.00 0.00 95 1019.6
20180920111720 69 178 0.0 0.0 0.00 0.00 0.00 95 1019.6
20180920111220 69 178 0.0 0.0 0.00 0.00 0.00 95 1019.6
20180920110723 69 178 0.0 0.0 0.00 0.00 0.00 95 1019.6
20180920110237 69 178 0.0 0.0 0.00 0.00 0.00 95 1019.6
20180920105723 69 178 0.0 0.0 0.00 0.00 0.00 95 1019.5
20180920105208 69 178 0.0 0.0 0.00 0.00 0.00 95 1019.5
20180920104711 69 178 0.0 0.0 0.00 0.00 0.00 94 1019.5
20180920104214 69 178 0.0 0.0 0.00 0.00 0.00 94 1019.3
20180920103722 69 178 0.0 0.0 0.00 0.00 0.00 94 1019.3
20180920103223 69 178 0.0 0.0 0.00 0.00 0.00 94 1019.3
20180920102724 69 178 0.0 0.0 0.00 0.00 0.00 94 1019.1
20180920102224 69 178 0.0 0.0 0.00 0.00 0.00 94 1019.1
20180920101724 69 178 0.0 0.0 0.00 0.00 0.00 94 1019.1
20180920101225 69 178 0.0 0.0 0.00 0.00 0.00 94 1019.0
20180920100726 69 178 0.0 0.0 0.00 0.00 0.00 94 1019.0
20180920100236 69 178 0.0 0.0 0.00 0.00 0.00 94 1019.0
20180920095718 69 178 0.0 0.0 0.00 0.00 0.00 94 1018.7
20180920095221 69 178 0.0 0.0 0.00 0.00 0.00 94 1018.7
20180920094725 69 178 0.0 0.0 0.00 0.00 0.00 94 1018.7
20180920094224 70 178 0.0 0.0 0.00 0.00 0.00 95 1018.6
20180920093712 70 178 0.0 0.0 0.00 0.00 0.00 95 1018.6
20180920093213 70 178 0.0 0.0 0.00 0.00 0.00 95 1018.6
20180920092714 70 178 0.0 0.0 0.00 0.00 0.00 95 1018.5
20180920092213 70 178 0.0 0.0 0.00 0.00 0.00 95 1018.5
20180920091716 70 178 0.0 0.0 0.00 0.00 0.00 95 1018.5
20180920091215 70 178 0.0 0.0 0.00 0.00 0.00 94 1018.5
20180920090719 70 178 0.0 0.0 0.00 0.00 0.00 94 1018.5
20180920090228 70 178 0.0 0.0 0.00 0.00 0.00 94 1018.5
20180920085718 70 178 0.0 0.0 0.00 0.00 0.00 94 1018.3
20180920085222 70 178 0.0 0.0 0.00 0.00 0.00 93 1018.3
20180920084722 70 178 0.0 0.0 0.00 0.00 0.00 93 1018.3
20180920084223 70 178 0.0 0.0 0.00 0.00 0.00 93 1018.1
20180920083724 70 178 0.0 0.0 0.00 0.00 0.00 93 1018.1
20180920083212 70 178 0.0 0.0 0.00 0.00 0.00 93 1018.1
20180920082711 70 178 0.0 0.0 0.00 0.00 0.00 93 1018.0
20180920082214 70 178 0.0 0.0 0.00 0.00 0.00 93 1018.0
20180920081718 70 178 0.0 0.0 0.00 0.00 0.00 93 1018.0
20180920081219 70 178 0.0 0.0 0.00 0.00 0.00 93 1018.0
20180920080722 70 178 0.0 0.0 0.00 0.00 0.00 93 1018.0
20180920080236 70 178 0.0 0.0 0.00 0.00 0.00 93 1018.0
20180920075719 70 178 0.0 0.0 0.00 0.00 0.00 93 1018.0
20180920075220 70 178 0.0 0.0 0.00 0.00 0.00 93 1018.0
20180920074722 71 178 0.0 0.0 0.00 0.00 0.00 93 1018.0
20180920074225 71 178 0.0 0.0 0.00 0.00 0.00 93 1018.0
20180920073726 71 178 0.0 0.0 0.00 0.00 0.00 93 1018.0
20180920073230 71 178 0.0 0.0 0.00 0.00 0.00 94 1018.0
20180920072712 71 178 0.0 0.0 0.00 0.00 0.00 94 1018.0
20180920072211 71 178 0.0 0.0 0.00 0.00 0.00 94 1018.0
20180920071714 71 178 0.0 0.0 0.00 0.00 0.00 94 1018.0
20180920071218 71 178 0.0 0.0 0.00 0.00 0.00 93 1018.0
20180920070719 71 178 0.0 0.0 0.00 0.00 0.00 92 1018.0
20180920070228 71 178 0.0 0.0 0.00 0.00 0.00 92 1018.0
20180920065711 71 178 0.0 0.0 0.00 0.00 0.00 92 1018.0
20180920065215 71 178 0.0 0.0 0.00 0.00 0.00 92 1018.0
20180920064719 71 178 0.0 0.0 0.00 0.00 0.00 92 1018.0
20180920064220 71 178 0.0 0.0 0.00 0.00 0.00 92 1018.0
20180920063832 71 178 0.0 0.0 0.00 0.00 0.00 92 1018.0
20180920063223 71 178 0.0 0.0 0.00 0.00 0.00 92 1018.0
20180920062723 72 178 0.0 0.0 0.00 0.00 0.00 92 1018.0
20180920062226 72 178 0.0 0.0 0.00 0.00 0.00 92 1018.0
20180920061730 72 178 0.0 0.0 0.00 0.00 0.00 92 1018.0
20180920061231 72 178 0.0 0.0 0.00 0.00 0.00 91 1018.1
20180920060711 72 178 0.0 0.0 0.00 0.00 0.00 91 1018.1
20180920060226 72 178 0.0 0.0 0.00 0.00 0.00 91 1018.1
20180920055713 72 178 0.0 0.0 0.00 0.00 0.00 91 1018.1
20180920055213 72 178 0.0 0.0 0.00 0.00 0.00 91 1018.1
20180920054714 72 178 0.0 0.0 0.00 0.00 0.00 91 1018.1
20180920054214 72 178 0.0 0.0 0.00 0.00 0.00 91 1018.1
20180920053717 72 178 0.0 0.0 0.00 0.00 0.00 91 1018.1
20180920053225 72 178 0.0 0.0 0.00 0.00 0.00 91 1018.1
20180920052726 73 178 0.0 0.0 0.00 0.00 0.00 92 1018.1
20180920052226 73 178 0.0 0.0 0.00 0.00 0.00 92 1018.1
20180920051708 73 178 0.0 0.0 0.00 0.00 0.00 91 1018.1
20180920051211 73 178 0.0 0.0 0.00 0.00 0.00 91 1018.1
20180920050715 73 178 0.0 0.0 0.00 0.00 0.00 91 1018.1
20180920050245 73 178 0.0 0.0 0.00 0.00 0.00 90 1018.1
20180920045727 73 178 0.0 0.0 0.00 0.00 0.00 90 1018.0
20180920045211 73 178 0.0 0.0 0.00 0.00 0.00 90 1018.0
20180920044711 73 178 0.0 0.0 0.00 0.00 0.00 89 1018.0
20180920044212 73 178 0.0 0.0 0.00 0.00 0.00 89 1018.0
20180920043716 73 178 0.0 0.0 0.00 0.00 0.00 89 1018.0
20180920043220 73 178 0.0 0.0 0.00 0.00 0.00 89 1018.0
20180920042723 73 178 0.0 0.0 0.00 0.00 0.00 89 1018.0
20180920042223 74 178 0.0 0.0 0.00 0.00 0.00 89 1018.0
20180920041723 74 178 0.0 0.0 0.00 0.00 0.00 88 1018.0
20180920041223 74 178 0.0 0.0 0.00 0.00 0.00 88 1018.0
20180920040723 74 178 0.0 0.0 0.00 0.00 0.00 88 1018.0
20180920040234 74 178 0.0 0.0 0.00 0.00 0.00 88 1018.0
20180920035721 74 178 0.0 0.0 0.00 0.00 0.00 89 1018.0
20180920035222 74 178 0.0 0.0 0.00 0.00 0.00 89 1018.0
20180920034722 74 178 0.0 0.0 0.00 0.00 0.00 88 1018.0
20180920034226 75 178 0.0 0.0 0.00 0.00 0.00 88 1018.1
20180920033726 75 178 0.0 0.0 0.00 0.00 0.00 87 1018.1
20180920033210 75 178 0.0 0.0 0.00 0.00 0.00 86 1018.1
20180920032714 75 178 0.0 0.0 0.00 0.00 0.00 86 1018.1
20180920032214 75 178 0.0 0.0 0.00 0.00 0.00 86 1018.1
20180920031715 75 178 0.0 0.0 0.00 0.00 0.00 86 1018.1
20180920031215 75 178 0.0 0.0 0.00 0.00 0.00 86 1018.0
20180920030716 76 178 0.0 0.0 0.00 0.00 0.00 86 1018.0
20180920030230 76 178 0.0 0.0 0.00 0.00 0.00 86 1018.0
20180920025713 76 178 0.0 0.0 0.00 0.00 0.00 85 1017.9
20180920025213 76 178 0.0 0.0 0.00 0.00 0.00 84 1017.9
20180920024716 76 178 0.0 0.0 0.00 0.00 0.00 84 1017.9
20180920024220 76 178 0.0 0.0 0.00 0.00 0.00 84 1017.9
20180920023719 76 178 0.0 0.0 0.00 0.00 0.00 84 1017.9
20180920023223 77 178 0.0 0.0 0.00 0.00 0.00 83 1017.9
20180920022728 77 178 0.0 0.0 0.00 0.00 0.00 82 1017.7
20180920022227 77 178 0.0 0.0 0.00 0.00 0.00 82 1017.7
20180920021712 77 178 0.0 0.0 0.00 0.00 0.00 82 1017.7
20180920021212 77 178 0.0 0.0 0.00 0.00 0.00 83 1017.8
20180920020712 77 178 0.0 0.0 0.00 0.00 0.00 83 1017.8
20180920020226 77 178 0.0 0.0 0.00 0.00 0.00 82 1017.8
20180920015713 78 178 0.0 0.0 0.00 0.00 0.00 80 1017.5
20180920015212 78 178 0.0 0.0 0.00 0.00 0.00 80 1017.5
20180920014713 78 178 0.0 0.0 0.00 0.00 0.00 80 1017.5
20180920014213 78 178 0.0 0.0 0.00 0.00 0.00 80 1017.5
20180920013713 78 178 0.0 0.0 0.00 0.00 0.00 80 1017.5
20180920013217 78 178 0.0 0.0 0.00 0.00 0.00 79 1017.5
20180920012721 79 178 0.0 0.0 0.00 0.00 0.00 78 1017.2
20180920012225 79 178 0.0 0.0 0.00 0.00 0.00 77 1017.2
20180920011725 79 178 0.0 0.0 0.00 0.00 0.00 75 1017.2
20180920011227 79 178 0.0 0.0 0.00 0.00 0.00 75 1016.9
20180920010710 80 178 0.0 0.0 0.00 0.00 0.00 74 1016.9
20180920010244 80 178 0.0 0.0 0.00 0.00 0.00 74 1016.9
20180920005726 80 178 0.0 0.0 0.00 0.00 0.00 73 1016.8
20180920005230 80 178 0.0 0.0 0.00 0.00 0.00 72 1016.8
20180920004730 80 178 0.0 0.0 0.00 0.00 0.00 72 1016.8
20180920004230 81 178 0.0 0.0 0.00 0.00 0.00 72 1016.5
20180920003731 81 178 0.0 0.0 0.00 0.00 0.00 70 1016.5
20180920003211 81 178 0.0 0.0 0.00 0.00 0.00 70 1016.5
20180920002716 81 178 0.0 0.0 0.00 0.00 0.00 71 1016.5
20180920002217 81 178 0.0 0.0 0.00 0.00 0.00 70 1016.5
20180920001717 82 178 0.0 0.0 0.00 0.00 0.00 71 1016.5
20180920001221 82 178 0.0 0.0 0.00 0.00 0.00 70 1016.4
20180920000722 82 178 0.0 0.0 0.00 0.00 0.00 68 1016.4
20180920000233 82 178 0.0 0.0 0.00 0.00 0.00 68 1016.4
20180919235717 82 178 0.0 0.0 0.00 0.00 0.00 68 1016.4
20180919235217 82 178 0.0 0.0 0.00 0.00 0.00 67 1016.4
20180919234717 83 178 0.0 0.0 0.00 0.00 0.00 66 1016.4
20180919234217 83 178 0.0 0.0 0.00 0.00 0.00 67 1016.4
20180919233718 83 178 0.0 0.0 0.00 0.00 0.00 67 1016.4
20180919233218 83 178 0.0 0.0 0.00 0.00 0.00 66 1016.4
20180919232721 83 178 0.0 0.0 0.00 0.00 0.00 66 1016.3
20180919232226 83 178 0.0 0.0 0.00 0.00 0.00 66 1016.3
20180919231725 83 178 0.0 0.0 0.00 0.00 0.00 66 1016.3
20180919231229 83 178 0.0 0.0 0.00 0.00 0.00 65 1016.2
20180919230729 84 178 0.0 0.0 0.00 0.00 0.00 65 1016.2
20180919230238 84 178 0.0 0.0 0.00 0.00 0.00 65 1016.2
20180919225720 84 178 0.0 0.0 0.00 0.00 0.00 65 1015.9
20180919225223 84 178 0.0 0.0 0.00 0.00 0.00 66 1015.9
20180919224728 85 178 0.0 0.0 0.00 0.00 0.00 64 1015.9
20180919224227 85 178 0.0 0.0 0.00 0.00 0.00 64 1016.0
20180919223708 86 178 0.0 0.0 0.00 0.00 0.00 62 1016.0
20180919223210 86 178 0.0 0.0 0.00 0.00 0.00 63 1016.0
20180919222715 86 178 0.0 0.0 0.00 0.00 0.00 61 1015.9
20180919222218 86 178 0.0 0.0 0.00 0.00 0.00 61 1015.9
20180919221722 87 178 0.0 0.0 0.00 0.00 0.00 60 1015.9
20180919221223 87 178 0.0 0.0 0.00 0.00 0.00 59 1015.9
20180919220723 87 178 0.0 0.0 0.00 0.00 0.00 59 1015.9
20180919220232 88 178 0.0 0.0 0.00 0.00 0.00 59 1015.9
20180919215719 88 178 0.0 0.0 0.00 0.00 0.00 58 1015.9
20180919215219 88 178 0.0 0.0 0.00 0.00 0.00 58 1015.9